STARLINK-5767, 55586

Orbit data source: Space-Track

STARLINK-5767, 55586 is a payload satellite owned by SpaceX/Seattle (US) in LEO that was launched on Sun, 12 Feb 2023 UTC via an FALCON 9 launch vehicle from the Air Force Eastern Test Range (AFETR). Payload-class satellites include a variety of spacecraft equipped with specific instruments for various scientific and technological missions. These include communications satellites like Starlink; space stations such as the ISS; scientific satellites like the Hubble; Earth observation satellites from companies like Planet Labs, Umbra, and HawkEye 360; GPS; miniature CubeSats for education and research; and military/defense satellites.

Loading next visibility...
Identifier
55586, 2023-020T
Orbit
LEO
Country
Flag of USUS
Related business
Manufacturer
SpaceX/Seattle
Mission
Operational Commercial Communications
Bus & Motor
STARLINK, Unknown motor
Mass
305 kg wet, ~290 kg dry
Launch date (UTC)
2023-02-12 (3 years ago)
Launch vehicle
FALCON 9
Launch site
Air Force Eastern Test Range (AFETR)
Object type
Payload
Rocket body
Debris
Shape & HBR
Box + 1 Pan, 10.1 m
Radar Cross Section
13.562 m², Large (>1 m²)

Expand to show TLE details & history
Last TLE update: 1 day ago

TLE from 1 day ago
0 STARLINK-5767
1 55586U 23020T   25338.51379201  .00000596  00000-0  59143-4 0  9991
2 55586  43.0011 161.6909 0001022 267.9606  92.1119 15.02551336154603
Epoch: 2025-12-04T12:19Z
TLE epoch observation values (Epoch: 2025-12-04T12:19:51.629Z)
Latitude
-0.00005°
Longitude
-96.84342°
Altitude
558.837 km
Speed
7.584 km/s
True Right ascension
10h 46m 45s
True Declination
0° 00' 00"
Sunlit
Object was in daylight at epoch
Visualization orbit readout
Latitude
Unknown
Longitude
Unknown
Altitude
Unknown
Speed
Unknown
Apparent Right ascension
Unknown
Apparent Declination
Unknown
Sunlit
N/A
Visualization observer readout
Local Sidereal Time
13:16:06
Azimuth
Unknown
Elevation
Unknown
Doppler factor
Unknown
Orbital elements
Apogee altitude
561.665 km
Perigee altitude
560.247 km
Semi-major axis
6,939.093 km
Eccentricity
0.0001
Inclination
43.0011°
RAAN
161.6909°
Arg. of periapsis
267.9606°
True anomaly
92.1236°
Mean anomaly
92.1119°
Eccentric anomaly
92.11775°
Mean motion
3.75482 °/min
Orbital period
95.88 mins
BSTAR
0.000059143
Loading maneuver chart data...
Computing Atmospheric mass density...
Loading historical data...
Loading historical data...
Loading historical data...
Loading historical data...
Loading historical data...
Loading historical data...
Loading historical data...

Documentation

Showing up to 5 results
|